Location: *
(12.5665°N, 8.3471°E)
Time: 05:07:05
(UTC+00:00)

Cosmos 1666 - Pass Details

Date: 23 September 2019
Orbit: 498 x 521 km, 82.5° (Epoch: 14 October)

Event Time Altitude Azimuth Distance (km) Brightness Sun altitude
Rises 04:07:58 0° 352° (N) 2,600 6.2 -17.4°
Reaches altitude 10° 04:10:05 10° 349° (N) 1,720 5.3 -16.8°
Maximum altitude 04:13:49 68° 266° (W) 550 2.5 -15.9°
Drops below altitude 10° 04:17:36 10° 183° (S) 1,733 5.3 -15.0°
Sets 04:19:44 0° 181° (S) 2,622 6.2 -14.5°
